Time,TemperatureF,DewpointF,PressureIn,WindDirection,WindDirectionDegrees,WindSpeedMPH,WindSpeedGustMPH,Humidity,HourlyPrecipIn,Conditions,Clouds,dailyrainin,SoftwareType,DateUTC
2013-08-14 00:01:00,65.1,52.7,29.68,SSW,205,0.0,0.0,95,0.00,,,0.00,meteohub,2013-08-14 04:01:00,
2013-08-14 00:06:00,65.1,52.7,29.68,SSW,205,0.0,0.0,95,0.00,,,0.00,meteohub,2013-08-14 04:06:00,
2013-08-14 00:11:00,65.1,53.4,29.68,SSW,205,0.0,0.0,96,0.00,,,0.00,meteohub,2013-08-14 04:11:00,
2013-08-14 00:16:00,65.3,53.4,29.68,SSW,205,0.0,0.0,96,0.00,,,0.00,meteohub,2013-08-14 04:16:00,
2013-08-14 00:21:00,65.3,52.7,29.68,SSW,205,0.0,0.0,96,0.00,,,0.00,meteohub,2013-08-14 04:21:00,
2013-08-14 00:26:00,65.3,52.7,29.69,SSW,205,0.0,0.0,96,0.00,,,0.00,meteohub,2013-08-14 04:26:00,
2013-08-14 00:31:00,65.3,52.7,29.68,SSW,205,0.0,0.0,96,0.00,,,0.00,meteohub,2013-08-14 04:31:00,
2013-08-14 00:36:00,65.3,53.2,29.68,SSW,205,0.0,0.0,96,0.00,,,0.00,meteohub,2013-08-14 04:36:00,
2013-08-14 00:41:00,65.1,53.2,29.68,SSW,205,0.0,0.0,96,0.00,,,0.00,meteohub,2013-08-14 04:41:00,
2013-08-14 00:46:00,65.1,53.2,29.69,SSW,205,0.0,0.0,96,0.00,,,0.00,meteohub,2013-08-14 04:46:00,
2013-08-14 00:51:00,65.1,53.2,29.68,SSW,205,0.0,0.0,96,0.00,,,0.00,meteohub,2013-08-14 04:51:00,
2013-08-14 00:56:00,65.1,53.2,29.69,SSW,205,0.0,0.0,96,0.00,,,0.00,meteohub,2013-08-14 04:56:00,
2013-08-14 01:01:00,65.3,53.2,29.69,SSW,205,0.0,0.0,96,0.00,,,0.00,meteohub,2013-08-14 05:01:00,
2013-08-14 01:06:00,65.5,53.2,29.69,SSW,205,0.0,0.0,96,0.00,,,0.00,meteohub,2013-08-14 05:06:00,
2013-08-14 01:11:00,65.5,53.2,29.68,SSW,205,0.0,0.0,96,0.00,,,0.00,meteohub,2013-08-14 05:11:00,
2013-08-14 01:16:00,65.7,53.2,29.67,SSW,205,0.0,0.0,96,0.00,,,0.00,meteohub,2013-08-14 05:16:00,
2013-08-14 01:21:00,65.7,53.2,29.67,SSW,205,0.0,1.0,96,0.00,,,0.00,meteohub,2013-08-14 05:21:00,
2013-08-14 01:27:00,65.7,53.2,29.67,SSW,205,0.0,1.0,96,0.00,,,0.00,meteohub,2013-08-14 05:27:00,
2013-08-14 01:32:00,65.8,53.2,29.67,SSW,205,0.0,0.0,96,0.00,,,0.00,meteohub,2013-08-14 05:32:00,
2013-08-14 01:37:00,65.7,53.2,29.67,SSW,205,0.0,0.0,96,0.00,,,0.00,meteohub,2013-08-14 05:37:00,
2013-08-14 01:42:00,65.7,53.2,29.67,SSW,205,0.0,0.0,96,0.00,,,0.00,meteohub,2013-08-14 05:42:00,
2013-08-14 01:47:00,65.7,53.2,29.67,SSW,205,0.0,0.0,96,0.00,,,0.00,meteohub,2013-08-14 05:47:00,
2013-08-14 01:52:00,65.7,53.2,29.67,SSW,205,0.0,0.0,96,0.00,,,0.00,meteohub,2013-08-14 05:52:00,
2013-08-14 01:57:00,65.7,53.1,29.67,SSW,205,0.0,0.0,96,0.00,,,0.00,meteohub,2013-08-14 05:57:00,
2013-08-14 02:02:00,65.7,53.1,29.67,SSW,205,0.0,0.0,96,0.00,,,0.00,meteohub,2013-08-14 06:02:00,
2013-08-14 02:07:00,65.7,53.1,29.67,SSW,205,0.0,1.0,96,0.00,,,0.00,meteohub,2013-08-14 06:07:00,
2013-08-14 02:12:00,65.5,53.1,29.67,SSW,205,0.0,1.0,95,0.00,,,0.00,meteohub,2013-08-14 06:12:00,
2013-08-14 02:17:00,65.5,53.1,29.68,SSW,205,0.0,1.0,95,0.00,,,0.00,meteohub,2013-08-14 06:17:00,
2013-08-14 02:22:00,65.7,53.1,29.68,SSW,205,0.0,0.0,96,0.00,,,0.00,meteohub,2013-08-14 06:22:00,
2013-08-14 02:27:00,65.7,53.1,29.68,WSW,245,0.0,2.0,96,0.00,,,0.00,meteohub,2013-08-14 06:27:00,
2013-08-14 02:32:00,65.7,53.1,29.68,WSW,244,0.0,2.0,95,0.00,,,0.00,meteohub,2013-08-14 06:32:00,
2013-08-14 02:37:00,65.7,53.1,29.68,WSW,244,0.0,2.0,95,0.00,,,0.00,meteohub,2013-08-14 06:37:00,
2013-08-14 02:42:00,65.7,53.1,29.68,South,190,0.0,2.0,95,0.00,,,0.00,meteohub,2013-08-14 06:42:00,
2013-08-14 02:47:00,65.8,53.1,29.68,South,190,0.0,2.0,94,0.00,,,0.00,meteohub,2013-08-14 06:47:00,
2013-08-14 02:52:00,65.7,53.1,29.68,WNW,303,0.0,4.0,92,0.00,,,0.00,meteohub,2013-08-14 06:52:00,
2013-08-14 02:57:00,65.7,53.1,29.68,NW,304,0.0,4.0,91,0.00,,,0.00,meteohub,2013-08-14 06:57:00,
2013-08-14 03:02:00,65.7,53.1,29.68,NW,304,0.0,4.0,90,0.00,,,0.00,meteohub,2013-08-14 07:02:00,
2013-08-14 03:07:00,65.7,52.9,29.68,NW,304,0.0,1.0,89,0.00,,,0.00,meteohub,2013-08-14 07:07:00,
2013-08-14 03:12:00,65.5,52.9,29.68,NW,304,0.0,0.0,89,0.00,,,0.00,meteohub,2013-08-14 07:12:00,
2013-08-14 03:17:00,65.3,52.9,29.69,South,187,0.0,2.0,88,0.00,,,0.00,meteohub,2013-08-14 07:17:00,
2013-08-14 03:22:00,65.1,52.9,29.69,South,180,0.0,2.0,88,0.00,,,0.00,meteohub,2013-08-14 07:22:00,
2013-08-14 03:27:00,64.9,52.9,29.69,South,180,0.0,2.0,88,0.00,,,0.00,meteohub,2013-08-14 07:27:00,
2013-08-14 03:32:00,64.9,52.9,29.69,West,267,0.0,2.0,88,0.00,,,0.00,meteohub,2013-08-14 07:32:00,
2013-08-14 03:37:00,64.8,52.9,29.69,West,267,0.0,5.0,88,0.00,,,0.00,meteohub,2013-08-14 07:37:00,
2013-08-14 03:42:00,64.8,52.9,29.69,West,267,0.0,5.0,88,0.00,,,0.00,meteohub,2013-08-14 07:42:00,
2013-08-14 03:47:00,64.6,52.9,29.69,South,187,0.0,5.0,88,0.00,,,0.00,meteohub,2013-08-14 07:47:00,
2013-08-14 03:52:00,64.2,52.9,29.69,South,187,0.0,4.0,87,0.00,,,0.00,meteohub,2013-08-14 07:52:00,
2013-08-14 03:57:00,64.2,52.9,29.70,South,187,0.0,4.0,87,0.00,,,0.00,meteohub,2013-08-14 07:57:00,
2013-08-14 04:02:00,64.0,52.9,29.69,South,188,0.0,4.0,87,0.00,,,0.00,meteohub,2013-08-14 08:02:00,
2013-08-14 04:07:00,64.0,52.9,29.69,South,188,0.0,2.0,87,0.00,,,0.00,meteohub,2013-08-14 08:07:00,
2013-08-14 04:12:00,63.9,52.9,29.70,SW,233,0.0,2.0,86,0.00,,,0.00,meteohub,2013-08-14 08:12:00,
2013-08-14 04:17:00,63.7,52.9,29.70,WSW,243,0.0,1.0,85,0.00,,,0.00,meteohub,2013-08-14 08:17:00,
2013-08-14 04:22:00,63.5,52.9,29.69,SW,233,0.0,2.0,84,0.00,,,0.00,meteohub,2013-08-14 08:22:00,
2013-08-14 04:27:00,63.3,52.9,29.69,SW,233,0.0,2.0,84,0.00,,,0.00,meteohub,2013-08-14 08:27:00,
2013-08-14 04:32:00,63.1,52.9,29.70,SW,221,0.0,2.0,83,0.00,,,0.00,meteohub,2013-08-14 08:32:00,
2013-08-14 04:37:00,63.0,52.9,29.70,SW,221,0.0,1.0,83,0.00,,,0.00,meteohub,2013-08-14 08:37:00,
2013-08-14 04:42:00,63.0,52.9,29.70,SW,221,0.0,1.0,84,0.00,,,0.00,meteohub,2013-08-14 08:42:00,
2013-08-14 04:47:00,62.6,52.9,29.70,SW,221,0.0,0.0,83,0.00,,,0.00,meteohub,2013-08-14 08:47:00,
2013-08-14 04:52:00,62.4,52.9,29.71,NW,321,1.0,1.0,83,0.00,,,0.00,meteohub,2013-08-14 08:52:00,
2013-08-14 04:57:00,62.2,52.9,29.71,NW,321,0.0,1.0,82,0.00,,,0.00,meteohub,2013-08-14 08:57:00,
2013-08-14 05:02:00,61.9,52.9,29.71,NW,321,0.0,1.0,79,0.00,,,0.00,meteohub,2013-08-14 09:02:00,
2013-08-14 05:06:00,61.7,52.9,29.71,WNW,303,0.0,5.0,76,0.00,,,0.00,meteohub,2013-08-14 09:06:00,
2013-08-14 05:12:00,61.5,52.9,29.71,NW,310,0.0,5.0,76,0.00,,,0.00,meteohub,2013-08-14 09:12:00,
2013-08-14 05:17:00,61.5,53.4,29.70,WNW,296,0.0,5.0,75,0.00,,,0.00,meteohub,2013-08-14 09:17:00,
2013-08-14 05:22:00,61.3,53.4,29.71,NW,323,2.0,5.0,75,0.00,,,0.00,meteohub,2013-08-14 09:22:00,
2013-08-14 05:27:00,61.2,53.4,29.71,South,191,0.0,5.0,74,0.00,,,0.00,meteohub,2013-08-14 09:27:00,
2013-08-14 05:32:00,61.0,53.4,29.71,SSW,192,0.0,4.0,76,0.00,,,0.00,meteohub,2013-08-14 09:32:00,
2013-08-14 05:37:00,60.8,53.4,29.71,SSW,198,0.0,4.0,76,0.00,,,0.00,meteohub,2013-08-14 09:37:00,
2013-08-14 05:42:00,60.6,53.4,29.71,NW,320,0.0,2.0,75,0.00,,,0.00,meteohub,2013-08-14 09:42:00,
2013-08-14 05:47:00,60.4,53.4,29.72,WNW,283,1.0,2.0,77,0.00,,,0.00,meteohub,2013-08-14 09:47:00,
2013-08-14 05:52:00,60.3,53.4,29.72,WNW,283,0.0,3.0,76,0.00,,,0.00,meteohub,2013-08-14 09:52:00,
2013-08-14 05:57:00,60.1,53.4,29.73,ENE,78,1.0,3.0,76,0.00,,,0.00,meteohub,2013-08-14 09:57:00,
2013-08-14 06:02:00,59.9,53.4,29.73,NW,312,2.0,5.0,75,0.00,,,0.00,meteohub,2013-08-14 10:02:00,
2013-08-14 06:07:00,59.9,53.4,29.73,WNW,294,0.0,5.0,76,0.00,,,0.00,meteohub,2013-08-14 10:07:00,
2013-08-14 06:12:00,59.7,53.4,29.73,NW,309,0.0,5.0,76,0.00,,,0.00,meteohub,2013-08-14 10:12:00,
2013-08-14 06:17:00,59.5,53.4,29.73,NW,309,0.0,5.0,76,0.00,,,0.00,meteohub,2013-08-14 10:17:00,
2013-08-14 06:22:00,59.5,53.4,29.73,WNW,285,1.0,5.0,76,0.00,,,0.00,meteohub,2013-08-14 10:22:00,
2013-08-14 06:27:00,59.4,53.4,29.74,WNW,290,0.0,2.0,76,0.00,,,0.00,meteohub,2013-08-14 10:27:00,
2013-08-14 06:32:00,59.4,53.2,29.74,WNW,290,0.0,3.0,76,0.00,,,0.00,meteohub,2013-08-14 10:32:00,
2013-08-14 06:37:00,59.4,53.2,29.74,WNW,290,1.0,3.0,76,0.00,,,0.00,meteohub,2013-08-14 10:37:00,
2013-08-14 06:42:00,59.2,53.2,29.74,WNW,303,0.0,2.0,77,0.00,,,0.00,meteohub,2013-08-14 10:42:00,
2013-08-14 06:47:00,59.0,53.2,29.74,NW,304,0.0,2.0,77,0.00,,,0.00,meteohub,2013-08-14 10:47:00,
2013-08-14 06:52:00,59.0,53.2,29.75,NNW,333,0.0,2.0,76,0.00,,,0.00,meteohub,2013-08-14 10:52:00,
2013-08-14 06:57:00,59.0,53.2,29.74,NNW,330,0.0,3.0,76,0.00,,,0.00,meteohub,2013-08-14 10:57:00,
2013-08-14 07:02:00,59.0,53.2,29.74,NNW,330,0.0,3.0,77,0.00,,,0.00,meteohub,2013-08-14 11:02:00,
2013-08-14 07:07:00,59.0,53.2,29.75,NNW,330,0.0,2.0,78,0.00,,,0.00,meteohub,2013-08-14 11:07:00,
2013-08-14 07:12:00,59.0,53.2,29.75,SSE,157,0.0,2.0,78,0.00,,,0.00,meteohub,2013-08-14 11:12:00,
2013-08-14 07:17:00,59.0,53.2,29.75,North,355,0.0,2.0,77,0.00,,,0.00,meteohub,2013-08-14 11:17:00,
2013-08-14 07:22:00,59.0,53.2,29.75,North,355,0.0,2.0,77,0.00,,,0.00,meteohub,2013-08-14 11:22:00,
2013-08-14 07:27:00,59.0,53.2,29.75,North,0,0.0,2.0,78,0.00,,,0.00,meteohub,2013-08-14 11:27:00,
2013-08-14 07:32:00,59.2,53.2,29.75,NNW,341,0.0,5.0,79,0.00,,,0.00,meteohub,2013-08-14 11:32:00,
2013-08-14 07:37:00,59.4,53.2,29.75,NW,308,1.0,5.0,77,0.00,,,0.00,meteohub,2013-08-14 11:37:00,
2013-08-14 07:42:00,59.4,53.2,29.75,NW,308,3.0,6.0,77,0.00,,,0.00,meteohub,2013-08-14 11:42:00,
2013-08-14 07:47:00,59.7,53.1,29.75,NW,307,0.0,6.0,78,0.00,,,0.00,meteohub,2013-08-14 11:47:00,
2013-08-14 07:52:00,59.9,53.1,29.75,WNW,299,1.0,6.0,77,0.00,,,0.00,meteohub,2013-08-14 11:52:00,
2013-08-14 07:57:00,60.1,53.1,29.75,NW,310,0.0,4.0,76,0.00,,,0.00,meteohub,2013-08-14 11:57:00,
2013-08-14 08:02:00,60.3,53.1,29.75,NW,309,1.0,5.0,77,0.00,,,0.00,meteohub,2013-08-14 12:02:00,
2013-08-14 08:07:00,60.4,53.1,29.75,WNW,283,0.0,5.0,77,0.00,,,0.00,meteohub,2013-08-14 12:07:00,
2013-08-14 08:12:00,60.6,53.1,29.75,WNW,284,0.0,4.0,77,0.00,,,0.00,meteohub,2013-08-14 12:12:00,
2013-08-14 08:17:00,61.0,53.1,29.76,NW,309,1.0,4.0,76,0.00,,,0.00,meteohub,2013-08-14 12:17:00,
2013-08-14 08:22:00,61.2,53.1,29.75,ESE,115,1.0,4.0,76,0.00,,,0.00,meteohub,2013-08-14 12:22:00,
2013-08-14 08:27:00,61.3,53.1,29.75,ESE,111,0.0,4.0,74,0.00,,,0.00,meteohub,2013-08-14 12:27:00,
2013-08-14 08:32:00,61.7,53.2,29.75,ESE,109,1.0,4.0,77,0.00,,,0.00,meteohub,2013-08-14 12:32:00,
2013-08-14 08:37:00,62.1,53.2,29.75,NNW,338,1.0,4.0,74,0.00,,,0.00,meteohub,2013-08-14 12:37:00,
2013-08-14 08:42:00,62.2,53.2,29.74,NNE,21,0.0,5.0,74,0.00,,,0.00,meteohub,2013-08-14 12:42:00,
2013-08-14 08:47:00,62.6,53.2,29.75,NW,307,0.0,5.0,73,0.00,,,0.00,meteohub,2013-08-14 12:47:00,
2013-08-14 08:52:00,63.0,53.2,29.74,WNW,301,0.0,5.0,72,0.00,,,0.00,meteohub,2013-08-14 12:52:00,
2013-08-14 08:57:00,63.1,53.2,29.74,WNW,298,0.0,5.0,73,0.00,,,0.00,meteohub,2013-08-14 12:57:00,
2013-08-14 09:02:00,63.5,53.2,29.74,NW,310,1.0,5.0,72,0.00,,,0.00,meteohub,2013-08-14 13:02:00,
2013-08-14 09:07:00,63.9,53.2,29.74,NNW,333,5.0,5.0,72,0.00,,,0.00,meteohub,2013-08-14 13:07:00,
2013-08-14 09:12:00,64.2,53.2,29.74,SE,141,0.0,6.0,69,0.00,,,0.00,meteohub,2013-08-14 13:12:00,
2013-08-14 09:17:00,64.8,53.2,29.74,SW,234,0.0,6.0,70,0.00,,,0.00,meteohub,2013-08-14 13:17:00,
2013-08-14 09:22:00,64.9,53.2,29.74,WNW,291,0.0,6.0,68,0.00,,,0.00,meteohub,2013-08-14 13:22:00,
2013-08-14 09:27:00,65.3,53.2,29.74,WSW,242,2.0,5.0,71,0.00,,,0.00,meteohub,2013-08-14 13:27:00,
2013-08-14 09:32:00,65.7,53.2,29.74,NW,324,1.0,5.0,69,0.00,,,0.00,meteohub,2013-08-14 13:32:00,
2013-08-14 09:37:00,65.7,53.2,29.74,WNW,297,2.0,5.0,68,0.00,,,0.00,meteohub,2013-08-14 13:37:00,
2013-08-14 09:42:00,66.0,53.2,29.74,West,265,0.0,4.0,68,0.00,,,0.00,meteohub,2013-08-14 13:42:00,
2013-08-14 09:47:00,66.4,53.2,29.74,NW,319,2.0,5.0,68,0.00,,,0.00,meteohub,2013-08-14 13:47:00,
2013-08-14 09:52:00,66.7,53.2,29.74,NW,319,0.0,5.0,68,0.00,,,0.00,meteohub,2013-08-14 13:52:00,
2013-08-14 09:57:00,66.9,53.2,29.74,NW,319,3.0,5.0,68,0.00,,,0.00,meteohub,2013-08-14 13:57:00,
2013-08-14 10:02:00,67.1,53.2,29.74,SSW,192,0.0,5.0,65,0.00,,,0.00,meteohub,2013-08-14 14:02:00,
2013-08-14 10:07:00,67.3,53.2,29.74,NW,318,1.0,6.0,66,0.00,,,0.00,meteohub,2013-08-14 14:07:00,
2013-08-14 10:12:00,67.6,53.2,29.74,WNW,288,2.0,6.0,67,0.00,,,0.00,meteohub,2013-08-14 14:12:00,
2013-08-14 10:17:00,67.8,53.4,29.73,NW,326,0.0,6.0,65,0.00,,,0.00,meteohub,2013-08-14 14:17:00,
2013-08-14 10:22:00,68.2,53.4,29.74,WNW,300,5.0,5.0,65,0.00,,,0.00,meteohub,2013-08-14 14:22:00,
2013-08-14 10:27:00,68.2,53.4,29.74,NW,323,1.0,6.0,63,0.00,,,0.00,meteohub,2013-08-14 14:27:00,
2013-08-14 10:32:00,68.5,53.4,29.74,West,267,0.0,6.0,66,0.00,,,0.00,meteohub,2013-08-14 14:32:00,
2013-08-14 10:37:00,69.1,53.4,29.74,WNW,296,4.0,6.0,64,0.00,,,0.00,meteohub,2013-08-14 14:37:00,
2013-08-14 10:42:00,68.9,53.4,29.74,WNW,301,2.0,6.0,62,0.00,,,0.00,meteohub,2013-08-14 14:42:00,
2013-08-14 10:47:00,69.1,53.4,29.74,NW,322,5.0,9.0,62,0.00,,,0.00,meteohub,2013-08-14 14:47:00,
2013-08-14 10:52:00,69.1,53.6,29.75,WNW,298,2.0,9.0,62,0.00,,,0.00,meteohub,2013-08-14 14:52:00,
2013-08-14 10:57:00,69.1,53.6,29.75,NNW,327,5.0,9.0,62,0.00,,,0.00,meteohub,2013-08-14 14:57:00,
2013-08-14 11:02:00,69.3,53.6,29.75,West,279,1.0,9.0,62,0.00,,,0.00,meteohub,2013-08-14 15:02:00,
2013-08-14 11:07:00,69.4,53.6,29.74,WNW,300,2.0,7.0,64,0.00,,,0.00,meteohub,2013-08-14 15:07:00,
2013-08-14 11:12:00,69.6,53.6,29.74,NNW,339,0.0,7.0,62,0.00,,,0.00,meteohub,2013-08-14 15:12:00,
2013-08-14 11:17:00,69.6,53.6,29.75,North,5,0.0,7.0,61,0.00,,,0.00,meteohub,2013-08-14 15:17:00,
2013-08-14 11:22:00,69.4,53.6,29.74,NNW,346,1.0,7.0,64,0.00,,,0.00,meteohub,2013-08-14 15:22:00,
2013-08-14 11:27:00,70.0,53.6,29.75,WNW,302,1.0,7.0,61,0.00,,,0.00,meteohub,2013-08-14 15:27:00,
2013-08-14 11:32:00,70.3,53.8,29.75,NNW,329,3.0,7.0,62,0.00,,,0.00,meteohub,2013-08-14 15:32:00,
2013-08-14 11:37:00,70.9,53.8,29.75,WNW,299,4.0,7.0,63,0.00,,,0.00,meteohub,2013-08-14 15:37:00,
2013-08-14 11:43:00,70.9,53.8,29.75,North,10,1.0,6.0,60,0.00,,,0.00,meteohub,2013-08-14 15:43:00,
2013-08-14 11:48:00,70.7,53.1,29.75,NNW,334,2.0,7.0,59,0.00,,,0.00,meteohub,2013-08-14 15:48:00,
2013-08-14 11:54:00,70.5,53.1,29.75,WNW,283,6.0,8.0,58,0.00,,,0.00,meteohub,2013-08-14 15:54:00,
2013-08-14 11:59:00,70.5,53.1,29.74,NW,321,3.0,8.0,60,0.00,,,0.00,meteohub,2013-08-14 15:59:00,
2013-08-14 12:04:00,70.7,53.8,29.75,NW,313,1.0,7.0,59,0.00,,,0.00,meteohub,2013-08-14 16:04:00,
2013-08-14 12:09:00,71.2,53.2,29.75,NW,306,1.0,7.0,61,0.00,,,0.00,meteohub,2013-08-14 16:09:00,
2013-08-14 12:14:00,71.2,53.2,29.75,SSE,168,2.0,7.0,58,0.00,,,0.00,meteohub,2013-08-14 16:14:00,
2013-08-14 12:19:00,71.2,53.2,29.75,NW,325,1.0,5.0,59,0.00,,,0.00,meteohub,2013-08-14 16:19:00,
2013-08-14 12:24:00,71.2,53.2,29.76,NNW,344,2.0,9.0,59,0.00,,,0.00,meteohub,2013-08-14 16:24:00,
2013-08-14 12:29:00,71.1,53.2,29.75,NW,305,5.0,9.0,58,0.00,,,0.00,meteohub,2013-08-14 16:29:00,
2013-08-14 12:34:00,71.1,53.2,29.75,NNW,332,0.0,9.0,56,0.00,,,0.00,meteohub,2013-08-14 16:34:00,
2013-08-14 12:39:00,70.3,53.2,29.75,SSE,165,0.0,8.0,57,0.00,,,0.00,meteohub,2013-08-14 16:39:00,
2013-08-14 12:44:00,70.0,53.2,29.75,SSW,207,0.0,8.0,58,0.00,,,0.00,meteohub,2013-08-14 16:44:00,
2013-08-14 12:49:00,70.3,53.2,29.75,NNW,330,1.0,8.0,59,0.00,,,0.00,meteohub,2013-08-14 16:49:00,
2013-08-14 12:54:00,70.9,53.2,29.75,NNW,333,3.0,6.0,57,0.00,,,0.00,meteohub,2013-08-14 16:54:00,
2013-08-14 12:59:00,70.7,53.2,29.75,NW,321,6.0,8.0,56,0.00,,,0.00,meteohub,2013-08-14 16:59:00,
2013-08-14 13:04:00,71.1,53.2,29.75,SE,137,0.0,8.0,60,0.00,,,0.00,meteohub,2013-08-14 17:04:00,
2013-08-14 13:09:00,71.4,53.2,29.75,NNW,336,0.0,8.0,58,0.00,,,0.00,meteohub,2013-08-14 17:09:00,
2013-08-14 13:15:00,71.4,53.2,29.75,NW,310,2.0,8.0,57,0.00,,,0.00,meteohub,2013-08-14 17:15:00,
2013-08-14 13:19:00,70.7,53.2,29.76,West,269,0.0,7.0,59,0.00,,,0.00,meteohub,2013-08-14 17:19:00,
2013-08-14 13:25:00,70.9,53.2,29.76,SSE,150,0.0,7.0,59,0.00,,,0.00,meteohub,2013-08-14 17:25:00,
2013-08-14 13:30:00,71.1,53.2,29.76,NNW,327,5.0,9.0,57,0.00,,,0.00,meteohub,2013-08-14 17:30:00,
2013-08-14 13:35:00,71.2,53.2,29.76,NNW,329,4.0,9.0,58,0.00,,,0.00,meteohub,2013-08-14 17:35:00,
2013-08-14 13:40:00,71.1,53.2,29.76,NW,309,0.0,9.0,61,0.00,,,0.00,meteohub,2013-08-14 17:40:00,
2013-08-14 13:45:00,71.4,53.2,29.77,WNW,291,4.0,8.0,58,0.00,,,0.00,meteohub,2013-08-14 17:45:00,
2013-08-14 13:50:00,71.2,53.2,29.76,NNW,331,2.0,8.0,59,0.00,,,0.00,meteohub,2013-08-14 17:50:00,
2013-08-14 13:55:00,71.2,53.2,29.76,NNW,336,1.0,8.0,59,0.00,,,0.00,meteohub,2013-08-14 17:55:00,
2013-08-14 14:00:00,71.2,53.2,29.76,SSE,153,0.0,8.0,60,0.00,,,0.00,meteohub,2013-08-14 18:00:00,
2013-08-14 14:05:00,71.2,53.2,29.76,SSE,150,2.0,7.0,61,0.00,,,0.00,meteohub,2013-08-14 18:05:00,
2013-08-14 14:11:00,71.6,53.2,29.76,NW,326,1.0,5.0,59,0.00,,,0.00,meteohub,2013-08-14 18:11:00,
2013-08-14 14:16:00,71.6,53.2,29.76,WNW,300,0.0,5.0,60,0.00,,,0.00,meteohub,2013-08-14 18:16:00,
2013-08-14 14:21:00,71.8,53.2,29.76,WNW,283,0.0,5.0,58,0.00,,,0.00,meteohub,2013-08-14 18:21:00,
2013-08-14 14:26:00,72.0,53.2,29.76,NNW,348,2.0,5.0,58,0.00,,,0.00,meteohub,2013-08-14 18:26:00,
2013-08-14 14:29:00,72.0,53.2,29.76,East,81,1.0,5.0,58,0.00,,,0.00,meteohub,2013-08-14 18:29:00,
2013-08-14 14:32:00,72.0,53.2,29.75,NNW,338,0.0,5.0,58,0.00,,,0.00,meteohub,2013-08-14 18:32:00,
2013-08-14 14:37:00,71.8,53.2,29.75,SW,227,0.0,8.0,59,0.00,,,0.00,meteohub,2013-08-14 18:37:00,
2013-08-14 14:44:00,72.5,53.4,29.75,WNW,291,0.0,8.0,59,0.00,,,0.00,meteohub,2013-08-14 18:44:00,
2013-08-14 14:49:00,72.9,53.4,29.75,WNW,300,0.0,8.0,56,0.00,,,0.00,meteohub,2013-08-14 18:49:00,
2013-08-14 14:54:00,73.0,53.4,29.75,North,349,0.0,5.0,56,0.00,,,0.00,meteohub,2013-08-14 18:54:00,
2013-08-14 15:01:00,72.9,53.4,29.76,SSW,207,1.0,6.0,57,0.00,,,0.00,meteohub,2013-08-14 19:01:00,
2013-08-14 15:06:00,72.3,53.4,29.75,NNW,327,0.0,6.0,59,0.00,,,0.00,meteohub,2013-08-14 19:06:00,
2013-08-14 15:11:00,72.7,53.4,29.76,South,186,4.0,6.0,57,0.00,,,0.00,meteohub,2013-08-14 19:11:00,
2013-08-14 15:16:00,72.7,53.2,29.76,SSE,167,0.0,6.0,57,0.00,,,0.00,meteohub,2013-08-14 19:16:00,
2013-08-14 15:22:00,72.7,53.2,29.77,ESE,107,0.0,5.0,58,0.00,,,0.00,meteohub,2013-08-14 19:22:00,
2013-08-14 15:27:00,72.7,53.2,29.77,ESE,109,0.0,5.0,59,0.00,,,0.00,meteohub,2013-08-14 19:27:00,
2013-08-14 15:32:00,72.3,52.5,29.77,WNW,292,0.0,5.0,57,0.00,,,0.00,meteohub,2013-08-14 19:32:00,
2013-08-14 15:37:00,72.9,52.5,29.77,NW,317,0.0,7.0,59,0.00,,,0.00,meteohub,2013-08-14 19:37:00,
2013-08-14 15:42:00,73.6,52.5,29.77,NW,321,2.0,7.0,56,0.00,,,0.00,meteohub,2013-08-14 19:42:00,
2013-08-14 15:48:00,73.8,52.5,29.77,WNW,300,2.0,7.0,56,0.00,,,0.00,meteohub,2013-08-14 19:48:00,
2013-08-14 15:53:00,73.2,52.5,29.77,SE,145,0.0,6.0,57,0.00,,,0.00,meteohub,2013-08-14 19:53:00,
2013-08-14 15:58:00,72.9,52.5,29.77,NNW,332,3.0,6.0,57,0.00,,,0.00,meteohub,2013-08-14 19:58:00,
2013-08-14 16:03:00,72.1,52.3,29.78,NW,315,0.0,6.0,58,0.00,,,0.00,meteohub,2013-08-14 20:03:00,
2013-08-14 16:08:00,71.8,52.5,29.78,NW,317,0.0,4.0,61,0.00,,,0.00,meteohub,2013-08-14 20:08:00,
2013-08-14 16:13:00,72.0,52.5,29.78,SW,219,1.0,4.0,59,0.00,,,0.00,meteohub,2013-08-14 20:13:00,
2013-08-14 16:18:00,72.3,52.5,29.78,East,92,1.0,4.0,59,0.00,,,0.00,meteohub,2013-08-14 20:18:00,
2013-08-14 16:23:00,72.9,52.5,29.78,NW,321,1.0,4.0,59,0.00,,,0.00,meteohub,2013-08-14 20:23:00,
2013-08-14 16:28:00,73.2,52.5,29.78,NW,319,1.0,5.0,55,0.00,,,0.00,meteohub,2013-08-14 20:28:00,
2013-08-14 16:33:00,73.0,52.5,29.78,NW,316,1.0,7.0,56,0.00,,,0.00,meteohub,2013-08-14 20:33:00,
2013-08-14 16:38:00,72.7,52.5,29.78,NW,304,0.0,7.0,55,0.00,,,0.00,meteohub,2013-08-14 20:38:00,
2013-08-14 16:45:00,72.9,52.5,29.78,NW,310,1.0,4.0,58,0.00,,,0.00,meteohub,2013-08-14 20:45:00,
2013-08-14 16:50:00,72.9,52.5,29.78,South,179,0.0,6.0,58,0.00,,,0.00,meteohub,2013-08-14 20:50:00,
2013-08-14 16:55:00,72.9,52.5,29.78,SSW,212,3.0,6.0,57,0.00,,,0.00,meteohub,2013-08-14 20:55:00,
2013-08-14 17:00:00,72.3,52.5,29.79,ESE,117,0.0,6.0,58,0.00,,,0.00,meteohub,2013-08-14 21:00:00,
2013-08-14 17:05:00,71.6,52.5,29.79,SE,138,0.0,6.0,60,0.00,,,0.00,meteohub,2013-08-14 21:05:00,
2013-08-14 17:10:00,70.9,52.5,29.79,SE,130,0.0,6.0,61,0.00,,,0.00,meteohub,2013-08-14 21:10:00,
2013-08-14 17:15:00,70.3,52.5,29.79,NE,36,0.0,2.0,62,0.00,,,0.00,meteohub,2013-08-14 21:15:00,
2013-08-14 17:20:00,70.0,52.5,29.79,SE,136,0.0,2.0,62,0.00,,,0.00,meteohub,2013-08-14 21:20:00,
2013-08-14 17:25:00,70.0,52.5,29.79,SE,136,0.0,2.0,63,0.00,,,0.00,meteohub,2013-08-14 21:25:00,
2013-08-14 17:31:00,69.8,53.2,29.79,SE,140,0.0,1.0,64,0.00,,,0.00,meteohub,2013-08-14 21:31:00,
2013-08-14 17:36:00,70.0,54.0,29.79,NNE,24,1.0,2.0,65,0.00,,,0.00,meteohub,2013-08-14 21:36:00,
2013-08-14 17:41:00,70.2,53.4,29.79,NW,319,0.0,2.0,64,0.00,,,0.00,meteohub,2013-08-14 21:41:00,
2013-08-14 17:46:00,70.3,53.4,29.80,NW,317,1.0,2.0,63,0.00,,,0.00,meteohub,2013-08-14 21:46:00,
2013-08-14 17:51:00,70.3,53.4,29.80,SSW,207,0.0,4.0,64,0.00,,,0.00,meteohub,2013-08-14 21:51:00,
2013-08-14 17:56:00,70.3,53.6,29.80,SSW,192,0.0,4.0,64,0.00,,,0.00,meteohub,2013-08-14 21:56:00,
2013-08-14 18:01:00,70.3,53.6,29.80,South,191,0.0,4.0,65,0.00,,,0.00,meteohub,2013-08-14 22:01:00,
2013-08-14 18:06:00,70.3,53.6,29.80,SE,125,1.0,5.0,63,0.00,,,0.00,meteohub,2013-08-14 22:06:00,
2013-08-14 18:11:00,70.3,53.6,29.81,SE,125,0.0,5.0,63,0.00,,,0.00,meteohub,2013-08-14 22:11:00,
2013-08-14 18:16:00,70.2,53.6,29.81,SSW,209,0.0,5.0,64,0.00,,,0.00,meteohub,2013-08-14 22:16:00,
2013-08-14 18:21:00,70.0,53.6,29.81,SSE,156,0.0,4.0,64,0.00,,,0.00,meteohub,2013-08-14 22:21:00,
2013-08-14 18:26:00,69.8,53.6,29.82,SE,130,1.0,5.0,63,0.00,,,0.00,meteohub,2013-08-14 22:26:00,
2013-08-14 18:31:00,69.6,53.6,29.82,East,90,0.0,5.0,64,0.00,,,0.00,meteohub,2013-08-14 22:31:00,
2013-08-14 18:36:00,69.4,53.6,29.82,SSE,154,0.0,5.0,64,0.00,,,0.00,meteohub,2013-08-14 22:36:00,
2013-08-14 18:41:00,69.3,53.6,29.82,SSE,159,2.0,5.0,65,0.00,,,0.00,meteohub,2013-08-14 22:41:00,
2013-08-14 18:46:00,69.1,53.6,29.83,SSE,159,0.0,4.0,65,0.00,,,0.00,meteohub,2013-08-14 22:46:00,
2013-08-14 18:51:00,68.7,53.6,29.83,SSE,159,0.0,4.0,66,0.00,,,0.00,meteohub,2013-08-14 22:51:00,
2013-08-14 18:56:00,68.5,53.6,29.84,SSE,159,0.0,3.0,66,0.00,,,0.00,meteohub,2013-08-14 22:56:00,
2013-08-14 19:02:00,68.2,53.6,29.84,SSE,159,0.0,2.0,67,0.00,,,0.00,meteohub,2013-08-14 23:02:00,
2013-08-14 19:07:00,68.0,53.6,29.84,SSE,159,0.0,4.0,68,0.00,,,0.00,meteohub,2013-08-14 23:07:00,
2013-08-14 19:12:00,67.8,53.6,29.85,SSE,159,0.0,4.0,67,0.00,,,0.00,meteohub,2013-08-14 23:12:00,
2013-08-14 19:17:00,67.8,53.6,29.84,South,188,0.0,4.0,68,0.00,,,0.00,meteohub,2013-08-14 23:17:00,
2013-08-14 19:22:00,67.8,53.6,29.85,South,188,0.0,1.0,68,0.00,,,0.00,meteohub,2013-08-14 23:22:00,
2013-08-14 19:27:00,67.6,53.6,29.85,South,188,0.0,1.0,69,0.00,,,0.00,meteohub,2013-08-14 23:27:00,
2013-08-14 19:32:00,67.3,53.6,29.85,South,188,0.0,1.0,69,0.00,,,0.00,meteohub,2013-08-14 23:32:00,
2013-08-14 19:37:00,67.1,53.6,29.86,South,188,0.0,1.0,70,0.00,,,0.00,meteohub,2013-08-14 23:37:00,
2013-08-14 19:42:00,66.7,53.6,29.86,South,188,0.0,1.0,71,0.00,,,0.00,meteohub,2013-08-14 23:42:00,
2013-08-14 19:47:00,66.6,53.6,29.86,SSW,211,0.0,1.0,71,0.00,,,0.00,meteohub,2013-08-14 23:47:00,
2013-08-14 19:52:00,66.4,53.6,29.86,SE,138,0.0,3.0,71,0.00,,,0.00,meteohub,2013-08-14 23:52:00,
2013-08-14 19:57:00,66.0,53.6,29.86,SE,138,0.0,5.0,71,0.00,,,0.00,meteohub,2013-08-14 23:57:00,
2013-08-14 20:02:00,65.8,53.6,29.87,SE,140,0.0,5.0,72,0.00,,,0.00,meteohub,2013-08-15 00:02:00,
2013-08-14 20:07:00,65.7,52.9,29.87,SE,140,0.0,5.0,72,0.00,,,0.00,meteohub,2013-08-15 00:07:00,
2013-08-14 20:12:00,65.5,52.7,29.87,SE,140,0.0,2.0,72,0.00,,,0.00,meteohub,2013-08-15 00:12:00,
2013-08-14 20:17:00,65.3,53.4,29.87,SE,140,0.0,1.0,73,0.00,,,0.00,meteohub,2013-08-15 00:17:00,
2013-08-14 20:22:00,64.9,53.4,29.88,SE,140,0.0,0.0,73,0.00,,,0.00,meteohub,2013-08-15 00:22:00,
2013-08-14 20:27:00,64.9,52.7,29.88,SE,140,0.0,1.0,74,0.00,,,0.00,meteohub,2013-08-15 00:27:00,
2013-08-14 20:32:00,64.8,52.7,29.88,SE,140,0.0,1.0,73,0.00,,,0.00,meteohub,2013-08-15 00:32:00,
2013-08-14 20:37:00,64.6,52.7,29.88,SE,140,1.0,1.0,73,0.00,,,0.00,meteohub,2013-08-15 00:37:00,
2013-08-14 20:42:00,64.4,53.4,29.89,SE,140,0.0,2.0,74,0.00,,,0.00,meteohub,2013-08-15 00:42:00,
2013-08-14 20:47:00,64.2,52.7,29.89,SE,140,0.0,2.0,74,0.00,,,0.00,meteohub,2013-08-15 00:47:00,
2013-08-14 20:52:00,64.0,52.7,29.89,SE,140,0.0,2.0,73,0.00,,,0.00,meteohub,2013-08-15 00:52:00,
2013-08-14 20:57:00,63.9,52.7,29.90,SE,140,0.0,2.0,74,0.00,,,0.00,meteohub,2013-08-15 00:57:00,
2013-08-14 21:02:00,63.9,52.7,29.90,SSW,209,0.0,1.0,73,0.00,,,0.00,meteohub,2013-08-15 01:02:00,
2013-08-14 21:07:00,63.7,52.7,29.91,SSW,209,0.0,1.0,73,0.00,,,0.00,meteohub,2013-08-15 01:07:00,
2013-08-14 21:12:00,63.7,52.5,29.91,SSW,209,0.0,1.0,74,0.00,,,0.00,meteohub,2013-08-15 01:12:00,
2013-08-14 21:17:00,63.7,52.5,29.91,SSW,209,0.0,1.0,73,0.00,,,0.00,meteohub,2013-08-15 01:17:00,
2013-08-14 21:22:00,63.5,52.5,29.91,SSW,209,0.0,1.0,74,0.00,,,0.00,meteohub,2013-08-15 01:22:00,
2013-08-14 21:27:00,63.3,52.5,29.92,SSW,209,0.0,0.0,74,0.00,,,0.00,meteohub,2013-08-15 01:27:00,
2013-08-14 21:32:00,63.1,52.5,29.92,SSW,209,0.0,1.0,74,0.00,,,0.00,meteohub,2013-08-15 01:32:00,
2013-08-14 21:37:00,63.0,52.5,29.93,SSW,209,0.0,1.0,75,0.00,,,0.00,meteohub,2013-08-15 01:37:00,
2013-08-14 21:42:00,63.0,52.5,29.93,SSW,209,0.0,0.0,75,0.00,,,0.00,meteohub,2013-08-15 01:42:00,
2013-08-14 21:47:00,62.8,52.5,29.93,SSW,209,0.0,0.0,75,0.00,,,0.00,meteohub,2013-08-15 01:47:00,
2013-08-14 21:52:00,62.6,52.5,29.94,SSW,209,0.0,0.0,75,0.00,,,0.00,meteohub,2013-08-15 01:52:00,
2013-08-14 21:57:00,62.4,52.3,29.94,SSW,209,0.0,0.0,76,0.00,,,0.00,meteohub,2013-08-15 01:57:00,
2013-08-14 22:02:00,62.2,52.3,29.94,SSW,209,0.0,0.0,77,0.00,,,0.00,meteohub,2013-08-15 02:02:00,
2013-08-14 22:07:00,62.2,52.3,29.94,SSW,209,0.0,0.0,77,0.00,,,0.00,meteohub,2013-08-15 02:07:00,
2013-08-14 22:12:00,62.1,52.3,29.94,SSW,209,0.0,0.0,77,0.00,,,0.00,meteohub,2013-08-15 02:12:00,
2013-08-14 22:17:00,61.9,52.3,29.94,SSW,209,0.0,0.0,77,0.00,,,0.00,meteohub,2013-08-15 02:17:00,
2013-08-14 22:22:00,61.5,52.2,29.94,SSW,209,0.0,0.0,78,0.00,,,0.00,meteohub,2013-08-15 02:22:00,
2013-08-14 22:27:00,61.3,52.2,29.94,SSW,209,0.0,0.0,78,0.00,,,0.00,meteohub,2013-08-15 02:27:00,
2013-08-14 22:32:00,61.2,52.2,29.95,SSW,209,0.0,0.0,79,0.00,,,0.00,meteohub,2013-08-15 02:32:00,
2013-08-14 22:37:00,60.6,52.2,29.95,SSW,209,0.0,0.0,80,0.00,,,0.00,meteohub,2013-08-15 02:37:00,
2013-08-14 22:42:00,60.4,52.2,29.95,SSW,209,0.0,0.0,80,0.00,,,0.00,meteohub,2013-08-15 02:42:00,
2013-08-14 22:47:00,60.3,52.0,29.95,SSW,209,0.0,0.0,81,0.00,,,0.00,meteohub,2013-08-15 02:47:00,
2013-08-14 22:52:00,59.9,52.0,29.95,SSW,209,0.0,0.0,81,0.00,,,0.00,meteohub,2013-08-15 02:52:00,
2013-08-14 22:57:00,59.5,52.0,29.96,SSW,209,0.0,0.0,82,0.00,,,0.00,meteohub,2013-08-15 02:57:00,
2013-08-14 23:02:00,59.4,52.0,29.96,SSW,209,0.0,0.0,83,0.00,,,0.00,meteohub,2013-08-15 03:02:00,
2013-08-14 23:07:00,59.0,52.0,29.96,SSW,209,0.0,0.0,83,0.00,,,0.00,meteohub,2013-08-15 03:07:00,
2013-08-14 23:12:00,59.0,52.0,29.96,SSW,209,0.0,0.0,84,0.00,,,0.00,meteohub,2013-08-15 03:12:00,
2013-08-14 23:17:00,58.6,51.8,29.96,SSW,209,0.0,0.0,84,0.00,,,0.00,meteohub,2013-08-15 03:17:00,
2013-08-14 23:23:00,58.5,51.8,29.96,SSW,209,0.0,0.0,84,0.00,,,0.00,meteohub,2013-08-15 03:23:00,
2013-08-14 23:28:00,58.3,51.8,29.97,SSW,209,0.0,0.0,85,0.00,,,0.00,meteohub,2013-08-15 03:28:00,
2013-08-14 23:33:00,57.9,51.8,29.97,SSW,209,0.0,0.0,86,0.00,,,0.00,meteohub,2013-08-15 03:33:00,
2013-08-14 23:38:00,57.7,51.8,29.97,SSW,209,0.0,0.0,86,0.00,,,0.00,meteohub,2013-08-15 03:38:00,
2013-08-14 23:43:00,57.6,51.8,29.97,SSW,209,0.0,0.0,86,0.00,,,0.00,meteohub,2013-08-15 03:43:00,
2013-08-14 23:48:00,57.6,51.8,29.98,SSW,209,0.0,0.0,86,0.00,,,0.00,meteohub,2013-08-15 03:48:00,
2013-08-14 23:53:00,57.6,52.3,29.98,SSW,209,0.0,0.0,87,0.00,,,0.00,meteohub,2013-08-15 03:53:00,
2013-08-14 23:58:00,57.6,52.3,29.98,SSW,209,0.0,0.0,87,0.00,,,0.00,meteohub,2013-08-15 03:58:00,